Flag for Ethiopia Weather past 2 weeks in Adama, Ethiopia

Now
55 °F

Passing clouds.


Feels Like: 55 °F
Forecast: 47 / 88 °F
Wind: 5 mph from Northwest

Location: Addis Ababa Airport

Current Time: Apr 22, 2015 at 7:50:53 AM

Latest Report: Apr 22, 2015 at 6:00 AM


Visibility: N/A

Pressure: 30.36 "Hg

Humidity: 38%

Dew point: 30 °F

Location of AdamaLocation

Historic Weather in Adama — Graph

°F

Adama temperature yesterday

Maximum temperature yesterday: 81 °F (at 3:00 PM)
Minimum temperature yesterday: 54 °F (at 6:00 AM)
Average temperature yesterday: 68 °F

Past Weeks' High & Low Weather Summary

 TemperatureHumidityPressure
High81 °F (Apr 7, 3:00 PM)82% (Apr 14, 4:00 AM)30.48 "Hg (Apr 14, 4:00 AM)
Low52 °F (Apr 18, 6:00 AM)17% (Apr 17, 1:00 PM)30.21 "Hg (Apr 7, 6:00 PM)
Average67 °F40%30.33 "Hg
* Reported Apr 7 3:00 PM — Apr 22 6:00 AM, Adama, Weather by CustomWeather, © 2015

Note: Actual official high and low records may vary slightly from our data, if they occured in-between our weather recording intervals... More about our weather records

Advertising

Adama weather history for previous 24 hours

 ConditionsComfort  
Time TempWeatherWind HumidityBarometerVisibility
6:00 AM
Wed, Apr 22
55 °FPassing clouds.5 mph38%30.36 "HgN/A
4:00 AM57 °FPassing clouds.2 mph36%30.33 "HgN/A
3:00 AM59 °FPassing clouds.5 mph39%30.33 "HgN/A
2:00 AM59 °FPassing clouds.9 mph39%30.33 "HgN/A
1:00 AM61 °FPassing clouds.2 mph39%30.36 "HgN/A
12:00 AM63 °FPassing clouds.2 mph42%30.39 "HgN/A
11:00 PM
Tue, Apr 21
66 °FPassing clouds.7 mph30%30.39 "HgN/A
10:00 PM68 °FClear.7 mph26%30.36 "Hg10 mi
9:00 PM68 °FPassing clouds.9 mph26%30.33 "HgN/A
8:00 PM72 °FPassing clouds.12 mph25%30.30 "HgN/A
7:00 PM73 °FPassing clouds.16 mph25%30.30 "HgN/A
6:00 PM77 °FPassing clouds.16 mph24%30.27 "HgN/A
5:00 PM79 °FPassing clouds.18 mph23%30.27 "HgN/A
3:00 PM81 °FPassing clouds.16 mph23%30.27 "HgN/A
2:00 PM79 °FSmoke.14 mph26%30.27 "HgN/A
1:00 PM77 °FPassing clouds.18 mph34%30.30 "HgN/A
11:00 AM72 °FPassing clouds.18 mph36%30.36 "HgN/A
10:00 AM72 °FSmoke.18 mph31%30.39 "HgN/A
9:00 AM66 °FSmoke.16 mph30%30.39 "HgN/A
8:00 AM59 °FSmoke.7 mph34%30.39 "HgN/A
7:00 AM57 °FSmoke.9 mph36%30.33 "HgN/A
Weather by CustomWeather, © 2015

See weather overviewHow to use our weather pages